Regional Weather Roundup
Issued by NWS Little Rock, AR

Home | Current Version | Previous Version | Graphics & Text | Print | Product List | Glossary On
Versions: 1 2 3 4 5 6 7 8 9 10 11 12 13 14 15 16 17 18 19 20 21 22 23 24 25 26 27 28 29 30 31 32 33 34 35 36 37 38 39 40 41 42 43 44
000
ASUS44 KLZK 241805
RWRLZK

WEATHER ROUNDUP FOR ARKANSAS
NATIONAL WEATHER SERVICE LITTLE ROCK AR
1200 PM CST FRI FEB 24 2017

NOTE: "FAIR" INDICATES FEW OR NO CLOUDS BELOW 12,000 FEET WITH NO
SIGNIFICANT WEATHER AND/OR OBSTRUCTIONS TO VISIBILITY.

ARZ001-003-010-029-241900-
NORTHWEST ARKANSAS

CITY           SKY/WX    TMP DP  RH WIND       PRES   REMARKS
FAYETTEVILLE   CLOUDY    46  38  73 NW13      29.80R
6HR MIN TEMP:  43; 6HR MAX TEMP:  46;

FORT SMITH     CLOUDY    52  37  56 W15G23    29.81R
6HR MIN TEMP:  50; 6HR MAX TEMP:  54;

HARRISON       PTSUNNY   53  42  66 W12       29.73R
6HR MIN TEMP:  48; 6HR MAX TEMP:  64;

BENTONVILLE    CLOUDY    45  32  61 W13G20    29.80R
6HR MIN TEMP:  41; 6HR MAX TEMP:  46;

ROGERS         CLOUDY    43  34  70 W10       29.80R
6HR MIN TEMP:  41; 6HR MAX TEMP:  47;

SILOAM SPGS    PTSUNNY   46  34  61 NW15      29.81R
6HR MIN TEMP:  41; 6HR MAX TEMP:  46;

HIGHFILL       CLOUDY    45  33  63 NW15      29.79S
6HR MIN TEMP:  42; 6HR MAX TEMP:  47;

SPRINGDALE     CLOUDY    43  36  75 W10G18    29.81R
$$

ARZ004-005-016-241900-
NORTH CENTRAL ARKANSAS

CITY           SKY/WX    TMP DP  RH WIND       PRES   REMARKS
BATESVILLE     CLOUDY    66  54  63 SW14      29.64F
6HR MIN TEMP:  59; 6HR MAX TEMP:  68;

FLIPPIN        PTSUNNY   55  39  54 W13       29.70R
6HR MIN TEMP:  52; 6HR MAX TEMP:  63;

MTN HOME       CLOUDY    53  41  63 N13G22    29.71R
6HR MIN TEMP:  50; 6HR MAX TEMP:  60;

$$

ARZ040-041-241900-
WEST CENTRAL ARKANSAS

CITY           SKY/WX    TMP DP  RH WIND       PRES   REMARKS
MENA           CLOUDY    59  45  58 W8        29.77S
MOUNT IDA      CLOUDY    61  45  55 W8        29.73R
6HR MIN TEMP:  57; 6HR MAX TEMP:  62;

$$

ARZ009-017-025-026-028-241900-
NORTHEAST ARKANSAS

CITY           SKY/WX    TMP DP  RH WIND       PRES   REMARKS
CORNING        CLOUDY    66  59  77 SW22G29   29.64S
JONESBORO      CLOUDY    64  56  75 SW21G29   29.67R
6HR MIN TEMP:  61; 6HR MAX TEMP:  65;

NEWPORT        PTSUNNY   64  57  78 S21       29.67R
6HR MIN TEMP:  60; 6HR MAX TEMP:  65;

WALNUT RIDGE   CLOUDY    66  54  63 SW18      29.65R
6HR MIN TEMP:  59; 6HR MAX TEMP:  68;

BLYTHEVILLE    CLOUDY    65  56  72 SW31G37   29.67R
6HR MIN TEMP:  63; 6HR MAX TEMP:  69;

NW BLYTHEVILLE CLOUDY    64  55  72 SW28G38   29.67R
$$

ARZ022-023-033-042-044-241900-
CENTRAL ARKANSAS

CITY           SKY/WX    TMP DP  RH WIND       PRES   REMARKS
LITTLE ROCK    CLOUDY    65  57  75 SW12      29.71R
6HR MIN TEMP:  57; 6HR MAX TEMP:  66;

N LITTLE ROCK    N/A     65  58  78 SW6       29.70S
6HR MIN TEMP:  58; 6HR MAX TEMP:  65;

JACKSONVILLE   CLOUDY    66  58  76 S12       29.68S
6HR MIN TEMP:  59; 6HR MAX TEMP:  66;

SEARCY         CLOUDY    67  58  72 SW12G20   29.69S
6HR MIN TEMP:  55; 6HR MAX TEMP:  68;

HOT SPRINGS    CLOUDY    63  50  62 NW10G17   29.72R
6HR MIN TEMP:  60; 6HR MAX TEMP:  65;

RUSSELLVILLE   PTSUNNY   56  44  64 W17G23    29.75R
6HR MIN TEMP:  55; 6HR MAX TEMP:  63;

CLINTON        CLOUDY    63  50  63 VRB7G13   29.69S
$$

ARZ036-241900-
EAST ARKANSAS

CITY           SKY/WX    TMP DP  RH WIND       PRES   REMARKS
WEST MEMPHIS   CLOUDY    64  57  78 S12G20    29.70S
6HR MIN TEMP:  60; 6HR MAX TEMP:  66;

$$

ARZ050-053-066-070-073-241900-
SOUTHWEST ARKANSAS

CITY           SKY/WX    TMP DP  RH WIND       PRES   REMARKS
ARKADELPHIA    CLOUDY    67  58  72 W9G17     29.72S
6HR MIN TEMP:  49; 6HR MAX TEMP:  67;

CAMDEN         CLOUDY    70  55  60 SW10G17   29.72S
TEXARKANA      CLOUDY    64  51  62 NW13      29.76R
6HR MIN TEMP:  59; 6HR MAX TEMP:  65;

EL DORADO      PTSUNNY   73  58  59 SW12G21   29.73R
6HR MIN TEMP:  59; 6HR MAX TEMP:  73;

DE QUEEN       CLOUDY    62  50  64 NW13      29.75R
6HR MIN TEMP:  49; 6HR MAX TEMP:  62;

$$

ARZ056-057-069-241900-
SOUTHEAST ARKANSAS

CITY           SKY/WX    TMP DP  RH WIND       PRES   REMARKS
PINE BLUFF     CLOUDY    66  57  72 SW10      29.72R
6HR MIN TEMP:  56; 6HR MAX TEMP:  66;

STUTTGART      CLOUDY    64  52  63 SW13      29.72S
6HR MIN TEMP:  59; 6HR MAX TEMP:  64;

MONTICELLO     PTSUNNY   73  57  57 SW13      29.71F
6HR MIN TEMP:  60; 6HR MAX TEMP:  74;


$$






USA.gov is the U.S. government's official web portal to all federal, state and local government web resources and services.